Simultaneous Nadir Overpasses (SNOs) Predictions

Prediction of SNOs between TERRA and METOP-C Satellite Orbit:

Table of predicted SNOs for the next 14.0 days since TLE Epoch: 2/29/2020
Index Date (TERRA) Time (TERRA) Lat,Lon (TERRA) SZA (TERRA ) Date (METOP-C) Time (METOP-C) Lat,Lon (METOP-C) SZA (METOP-C ) Distance(km) Time Diff (sec)
1 03/02/2020 16:22:18 81.29, -18.53 90.52 03/02/2020 16:21:49 81.28, -18.70 90.49 2.84 29
2 03/02/2020 17:11:45 -81.28, 149.05 89.50 03/02/2020 17:12:29 -81.29, 149.09 89.48 0.97 44
3 03/05/2020 11:56:30 81.28, 47.78 89.44 03/05/2020 11:56:12 81.28, 47.61 89.42 2.88 18
4 03/05/2020 12:45:56 -81.30,-144.23 90.53 03/05/2020 12:46:51 -81.29,-144.23 90.51 0.47 55
5 03/08/2020 07:30:41 81.28, 114.28 88.37 03/08/2020 07:30:35 81.29, 114.29 88.38 0.55 6
6 03/08/2020 08:20:07 -81.30, -77.70 91.59 03/08/2020 08:21:14 -81.30, -77.57 91.55 2.30 67
7 03/11/2020 02:15:25 -81.28, 13.02 92.71 03/11/2020 02:14:19 -81.28, 13.02 92.73 0.40 66
8 03/11/2020 03:04:50 81.29,-179.02 87.33 03/11/2020 03:04:58 81.29,-179.03 87.33 0.53 8
9 03/13/2020 21:49:32 -81.28, 79.57 93.78 03/13/2020 21:48:41 -81.28, 79.66 93.79 1.50 51




NCC Satellite Simultaneous Nadir Overpasses (SNOs) Prediction Service
